Regional Weather Roundup
Issued by NWS

Home | Current Version | Previous Version | Text Only | Print | Product List | Glossary On
Versions: 1 2 3 4 5 6 7 8 9 10 11 12 13 14 15 16 17 18 19 20 21 22 23 24 25 26 27 28 29 30 31 32 33 34 35 36 37 38 39 40 41 42 43 44 45 46 47 48 49 50
000
ASUS43 KDMX 300504
RWRIA

WEATHER ROUNDUP FOR IOWA
NATIONAL WEATHER SERVICE DES MOINES IA
  ISSUED BY NWS QUAD CITIES IA IL
1100 PM CST THU JAN 29 2015

NOTE: "FAIR" INDICATES FEW OR NO CLOUDS BELOW 12,000 FEET WITH NO
SIGNIFICANT WEATHER AND/OR OBSTRUCTIONS TO VISIBILITY.

* - THESE STATIONS ARE NOT NWS STATIONS...THUS NOT UNDER NWS
QUALITY CONTROL.  THEY ALSO DO NOT REPORT WEATHER SUCH
AS PRECIPITATION OR FOG.

IAZ001>003-012>014-020>022-031>034-043>046-300600-
   NORTHWEST IOWA

CITY           SKY/WX    TMP DP  RH WIND       PRES   REMARKS
CARROLL *      CLEAR     23  21  93 N8        30.52R WCI  14
CHEROKEE *     CLEAR     23  20  88 N6        30.54R WCI  16
DENNISON *     PTCLDY    25  21  86 N7        30.51S WCI  17
LE MARS *      MOCLDY    25  19  80 N6        30.55S WCI  18
SIOUX CITY     MOCLDY    27  19  72 NE7       30.55R WCI  19
SPENCER        CLEAR     19  14  81 NW9       30.54R WCI   8
$$

IAZ055>058-069>071-079>083-090>094-300600-
   SOUTHWEST IOWA

CITY           SKY/WX    TMP DP  RH WIND       PRES   REMARKS
ATLANTIC *     FAIR      28  21  74 N9        30.53R WCI  20
AUDUBON *      CLEAR     25  19  80 N3        30.52S
CLARINDA *     CLOUDY    32  23  69 N10       30.55R WCI  24
COUNCIL BLFS * CLOUDY    28  23  80 N8        30.51F WCI  20
CRESTON *      PTCLDY    27  21  80 NW12      30.51R WCI  16
HARLAN *       PTCLDY    27  23  86 N9        30.57R WCI  17
LAMONI         PTCLDY    28  21  75 NW9       30.49R WCI  19
$$

IAZ047>049-059>061-072>074-084-300600-
   CENTRAL IOWA

CITY           SKY/WX    TMP DP  RH WIND       PRES   REMARKS
AMES           PTCLDY    23  17  78 N17G24    30.51R WCI   9
ANKENY *       CLEAR     25  19  80 NW14      30.52R WCI  13
BOONE *        CLEAR     23  19  86 N10       30.49R WCI  12
CHARITON *     CLEAR     27  21  80 NW9       30.49R WCI  17
DES MOINES     CLEAR     27  19  72 N13       30.51R WCI  16
GRINNELL *     CLOUDY    24  19  79 NW16G23   30.47R WCI  11
MARSHALLTOWN   CLOUDY    23  17  78 NW17      30.48R WCI   9
PERRY *          N/A     25  21  86 NW13      30.52R WCI  14
$$

IAZ004>006-015-016-023>025-035-036-300600-
   NORTH CENTRAL IOWA

CITY           SKY/WX    TMP DP  RH WIND       PRES   REMARKS
ALGONA *       PTCLDY    19  16  86 N10       30.53R WCI   8
CLARION *      PTCLDY    19  16  86 N14G23    30.51R WCI   6
ESTHERVILLE    CLEAR     17  13  84 NW15      30.52R WCI   2
FORT DODGE *   PTCLDY    21  16  79 N9G16     30.52S WCI  11
MASON CITY     FAIR      18  13  80 NW15      30.50R WCI   4
WEBSTER CITY * PTCLDY    21  19  93 N16G22    30.50R WCI   7
IOWA FALLS *   CLOUDY    22  16  79 NW18      30.50R WCI   7
$$

IAZ007>011-017>019-026>030-037>042-050>054-066-300600-
   NORTHEAST IOWA

CITY           SKY/WX    TMP DP  RH WIND       PRES   REMARKS
CEDAR RAPIDS   MOCLDY    25  16  68 N21       30.44R WCI  11
CHARLES CITY * CLOUDY    21  16  79 NW17G24   30.47R WCI   7
CLINTON *      CLOUDY    28  18  64 NW15      30.42R WCI  17
DECORAH *      PTCLDY    19  10  68 N17G25    30.43R WCI   4
DUBUQUE        PTCLDY    24  13  62 N12       30.38R WCI  13
MONTICELLO *   MOCLDY    25  18  74 NW10G17   30.42R WCI  15
OELWEIN *      CLEAR     23  16  74 NW16      30.45R WCI  10
WATERLOO       PTCLDY    22  15  75 NW15      30.47R WCI   9
$$

IAZ064-065-067-068-078-300600-
   EAST CENTRAL IOWA

CITY           SKY/WX    TMP DP  RH WIND       PRES   REMARKS
DAVENPORT      CLOUDY    28  17  63 NW20      30.41R WCI  15
IOWA CITY      CLOUDY    27  17  66 NW12G24   30.46R WCI  17
MT. PLEASANT * CLOUDY    27  19  72 NW15G21   30.46R WCI  15
MUSCATINE *    MOCLDY    28  18  64 N23G30    30.45R WCI  14
QUAD CITIES    CLOUDY    29  19  66 NW18G24   30.40R WCI  16
$$

IAZ062-063-075>077-085>089-095>099-300600-
   SOUTHEAST IOWA

CITY           SKY/WX    TMP DP  RH WIND       PRES   REMARKS
BURLINGTON     CLOUDY    29  20  69 NW18G28   30.44R WCI  16
FAIRFIELD *    CLOUDY    27  19  74 N23       30.47R WCI  12
FORT MADISON * MOCLDY    28  21  74 NW17G23   30.45R WCI  16
KEOKUK *       MOCLDY    28  21  74 NW15G21   30.45R WCI  17
OTTUMWA        CLOUDY    27  19  72 N18       30.48R WCI  14
WASHINGTON *   CLOUDY    27  21  80 NW18G26   30.46R WCI  13
$$

ABBREVIATIONS USED IN REMARKS
   TC - TEMPERATURES IN CELSIUS
  WCI - WIND CHILL INDEX
   HX - HEAT INDEX
  VSB - VISIBILITY
$$



USA.gov is the U.S. government's official web portal to all federal, state and local government web resources and services.